(280415) = 1997 WO6 = 2003 WT156

Discovered at Kitt Peak on 2003-11-29 by Spacewatch.

Orbit

Orbit type: Main Belt

Note: WebGL enabled browser required.

epoch2024-03-31.0
epoch JD2460400.5
perihelion date2022-05-17.06639
perihelion JD2459716.56639
argument of perihelion (°)354.20528
ascending node (°)65.81213
inclination (°)13.25527
eccentricity0.0862772
perihelion distance (AU)3.0508900
Tisserand w.r.t. Jupiter3.1
ΔV w.r.t. Earth (km/sec)11.5
semimajor axis (AU)3.3389666
mean anomaly (°)110.48407
mean daily motion (°/day)0.16154210
aphelion distance (AU)3.627
period (years)6.1
P-vector [x]0.49728309
P-vector [y]0.80492192
P-vector [z]0.32374408
Q-vector [x]-0.84199861
Q-vector [y]0.35779529
Q-vector [z]0.40375844
absolute magnitude15.39
phase slope0.15
uncertainty0
referenceMPEC 2024-F28
observations used448
oppositions17
arc length (days)9612
first opposition used1997
last opposition used2024
residual rms (arc-secs)0.72
perturbers coarse indicatorM-v
perturbers precise indicator003Ek
first observation date used1997-11-23.0
last observation date used2024-03-18.0
computer nameMPCLINUX
JD of orbit computation2456909.345404
perihelion JD uncertainty (days)3.1811E-04
argument of perihelion uncertainty (°)5.2346E-05
ascending node uncertainty (°)2.5727E-05
inclination uncertainty (°)8.6495E-06
eccentricity uncertainty 8.4637E-08
perihelion distance uncertainty (AU)2.9935E-07
Minimum Orbit Intersection Distances (in AU)
for orbit epoch: 2460400.5, reference: E2024-GF4
Mercury2.74011
Venus2.32911
Earth2.06439
Mars1.51936
Jupiter1.70881
Saturn5.98585
Uranus15.0662
Neptune26.7548

Observations

458 total observations over interval: 1997 11 23.41183 – 2024 03 18.388705
These data are available for download (format description).

Date (UT) J2000 RA J2000 Dec Magn Location Ref
1997 11 23.41183 03 33 24.43 +15 45 10.8 19.7 V 691 – Steward Observatory, Kitt Peak-Spacewatch MPS 224
1997 11 23.43365 03 33 23.22 +15 45 12.4 20.0 V 691 – Steward Observatory, Kitt Peak-Spacewatch MPS 224
1997 11 23.45574 03 33 22.04 +15 45 13.7 19.7 V 691 – Steward Observatory, Kitt Peak-Spacewatch MPS 224
1997 11 25.18453 03 31 50.68 +15 47 19.2 19.7 V 691 – Steward Observatory, Kitt Peak-Spacewatch MPS 224
1997 11 25.20634 03 31 49.50 +15 47 20.6 19.5 V 691 – Steward Observatory, Kitt Peak-Spacewatch MPS 224
1997 11 25.22832 03 31 48.31 +15 47 22.3 19.3 V 691 – Steward Observatory, Kitt Peak-Spacewatch MPS 224
2003 11 19.30159 03 01 26.87 +11 04 11.3 19.6 R 699 – Lowell Observatory-LONEOS MPS 173903
2003 11 19.31746 03 01 26.08 +11 04 10.2   699 – Lowell Observatory-LONEOS MPS 173903
2003 11 19.33326 03 01 25.30 +11 04 12.2   699 – Lowell Observatory-LONEOS MPS 173903
2003 11 19.34893 03 01 24.54 +11 04 14.7   699 – Lowell Observatory-LONEOS MPS 173903
2003 11 29.33714 02 53 24.62 +11 16 20.3 20.1 V 691 – Steward Observatory, Kitt Peak-Spacewatch MPS 92889
2003 11 29.36397 02 53 23.39 +11 16 22.7 20.8 V 691 – Steward Observatory, Kitt Peak-Spacewatch MPS 92889
2003 11 29.39129 02 53 22.16 +11 16 25.1 20.3 V 691 – Steward Observatory, Kitt Peak-Spacewatch MPS 92889
2003 11 30.20326 02 52 46.80 +11 17 44.0 19.8   704 – Lincoln Laboratory ETS, New Mexico MPS 92889
2003 11 30.21645 02 52 46.20 +11 17 45.5 19.9   704 – Lincoln Laboratory ETS, New Mexico MPS 92889
2003 11 30.24249 02 52 45.05 +11 17 47.1 20.4   704 – Lincoln Laboratory ETS, New Mexico MPS 92889
2003 11 30.25539 02 52 44.39 +11 17 49.3 20.1   704 – Lincoln Laboratory ETS, New Mexico MPS 92889
2006 04 07.28407 13 24 48.25 +06 15 03.8   291 – LPL/Spacewatch II MPS 286885
2006 04 07.28778 13 24 48.08 +06 15 04.2   291 – LPL/Spacewatch II MPS 286885
2006 04 07.29153 13 24 47.91 +06 15 04.7   291 – LPL/Spacewatch II MPS 286885
2008 08 04.55852 21 41 39.19 -32 40 59.2 20.9 V E12 – Siding Spring Survey MPS 286885
2008 08 04.57265 21 41 38.58 -32 41 04.7 19.7 V E12 – Siding Spring Survey MPS 286885
2008 08 04.58757 21 41 37.78 -32 41 08.0 20.2 V E12 – Siding Spring Survey MPS 286885
2008 08 04.60221 21 41 37.10 -32 41 13.5 20.2 V E12 – Siding Spring Survey MPS 286885
2009 10 20.27833 02 42 28.88 +05 08 16.6 19.9   704 – Lincoln Laboratory ETS, New Mexico MPS 299341
2009 10 20.29174 02 42 28.16 +05 08 15.0 19.8   704 – Lincoln Laboratory ETS, New Mexico MPS 299341
2009 10 20.30515 02 42 27.61 +05 08 15.1 19.9   704 – Lincoln Laboratory ETS, New Mexico MPS 299341
2009 10 20.31859 02 42 26.85 +05 08 13.4 20.1   704 – Lincoln Laboratory ETS, New Mexico MPS 299341
2009 10 20.33204 02 42 26.27 +05 08 13.0 19.8   704 – Lincoln Laboratory ETS, New Mexico MPS 299341
2009 11 08.31917 02 26 42.18 +04 58 32.3 19.2 V 703 – Catalina Sky Survey MPS 302146
2009 11 08.32580 02 26 41.82 +04 58 31.3 20.1 V 703 – Catalina Sky Survey MPS 302146
2009 11 08.33240 02 26 41.53 +04 58 31.8 20.2 V 703 – Catalina Sky Survey MPS 302146
2009 11 08.33896 02 26 41.20 +04 58 32.5 19.5 V 703 – Catalina Sky Survey MPS 302146
2009 11 23.17660 02 15 25.30 +05 13 09.8 19.7 V 703 – Catalina Sky Survey MPS 304845
2009 11 23.18259 02 15 24.94 +05 13 11.2 20.1 V 703 – Catalina Sky Survey MPS 304845
2009 11 23.18861 02 15 24.73 +05 13 11.2 21.1 V 703 – Catalina Sky Survey MPS 304845
2009 11 23.19407 02 15 24.55 +05 13 10.6 19.6 V G96 – Mt. Lemmon Survey MPS 304845
2009 11 23.19461 02 15 24.48 +05 13 12.0 19.9 V 703 – Catalina Sky Survey MPS 304845
2009 11 23.19953 02 15 24.33 +05 13 11.4 19.7 V G96 – Mt. Lemmon Survey MPS 304845
2009 11 23.20058 02 15 24.08 +05 13 11.4 19.2 V 703 – Catalina Sky Survey MPS 304845
2009 11 23.20498 02 15 24.01 +05 13 11.6 19.3 V G96 – Mt. Lemmon Survey MPS 304845
2009 11 23.21048 02 15 23.86 +05 13 11.8 19.4 V G96 – Mt. Lemmon Survey MPS 304845
2010 01 19.229486 02 11 55.63 +09 42 49.0   C51 – WISE MPS 333508
2010 01 19.361791 02 11 59.88 +09 43 43.7   C51 – WISE MPS 333508
2010 01 19.494095 02 12 04.21 +09 44 40.3   C51 – WISE MPS 333508
2010 01 19.626528 02 12 08.52 +09 45 34.6   C51 – WISE MPS 333508
2010 01 19.692616 02 12 10.68 +09 46 02.4   C51 – WISE MPS 333508
2010 01 19.758832 02 12 12.86 +09 46 29.6   C51 – WISE MPS 333508
2010 01 19.825049 02 12 15.03 +09 46 57.6   C51 – WISE MPS 333508
2010 01 19.891137 02 12 17.17 +09 47 26.4   C51 – WISE MPS 333508
2010 01 19.957353 02 12 19.40 +09 47 53.1   C51 – WISE MPS 333508
2010 01 20.089657 02 12 23.77 +09 48 49.5   C51 – WISE MPS 333508
2010 01 20.221962 02 12 28.17 +09 49 44.6   C51 – WISE MPS 333508
2011 01 10.34584 08 41 51.50 +34 08 03.8 21.1 V 703 – Catalina Sky Survey MPS 365468
2011 01 10.35048 08 41 51.25 +34 08 05.8 19.8 V 703 – Catalina Sky Survey MPS 365468
2011 01 10.35524 08 41 50.85 +34 08 08.4 20.0 V 703 – Catalina Sky Survey MPS 365468
2011 01 10.36008 08 41 50.74 +34 08 11.0 20.4 V 703 – Catalina Sky Survey MPS 365468
2011 01 28.24182 08 26 11.32 +35 41 14.8 19.9 V 703 – Catalina Sky Survey MPS 366963
2011 01 28.24750 08 26 11.00 +35 41 16.7 19.7 V 703 – Catalina Sky Survey MPS 366963
2011 01 28.25329 08 26 10.57 +35 41 19.4 21.0 V 703 – Catalina Sky Survey MPS 366963
2011 01 28.25906 08 26 10.24 +35 41 19.2 19.7 V 703 – Catalina Sky Survey MPS 366963
2011 05 31.15692 08 56 05.64 +29 24 33.8 21.5 V G96 – Mt. Lemmon Survey MPS 383979
2011 05 31.16179 08 56 06.00 +29 24 31.8 21.3 V G96 – Mt. Lemmon Survey MPS 383979
2011 05 31.16665 08 56 06.36 +29 24 30.6 21.0 V G96 – Mt. Lemmon Survey MPS 383979
2011 05 31.17154 08 56 06.68 +29 24 28.2 21.3 V G96 – Mt. Lemmon Survey MPS 383979
2011 05 31.17640 08 56 07.00 +29 24 26.2 20.8 V G96 – Mt. Lemmon Survey MPS 383979
2012 03 19.04036 13 15 04.46 +08 39 08.6 19.8 R 461 – University of Szeged, Piszkesteto Stn. (Konkol MPS 418348
2012 03 19.05083 13 15 04.02 +08 39 11.0 19.5 R 461 – University of Szeged, Piszkesteto Stn. (Konkol MPS 418348
2012 03 19.06131 13 15 03.58 +08 39 14.1 19.5 R 461 – University of Szeged, Piszkesteto Stn. (Konkol MPS 418348
2012 03 27.28072 13 09 22.24 +09 10 20.2 21.2 V 703 – Catalina Sky Survey MPS 420162
2012 03 27.28586 13 09 22.06 +09 10 21.5 19.8 V 703 – Catalina Sky Survey MPS 420162
2012 03 27.29097 13 09 21.78 +09 10 23.2 20.1 V 703 – Catalina Sky Survey MPS 420162
2012 03 27.29605 13 09 21.52 +09 10 22.9 20.8 V 703 – Catalina Sky Survey MPS 420162
2012 04 21.44968 12 51 03.958 +10 03 31.54 20.4 w F51 – Pan-STARRS 1, Haleakala MPS 422757
2012 04 21.46417 12 51 03.355 +10 03 31.94 20.4 w F51 – Pan-STARRS 1, Haleakala MPS 422757
2012 04 21.47868 12 51 02.764 +10 03 32.27 20.4 w F51 – Pan-STARRS 1, Haleakala MPS 422757
2013 06 07.42276 16 20 00.084 -22 37 45.99 20.7 w F51 – Pan-STARRS 1, Haleakala MPS 469795
2013 06 07.43933 16 19 59.268 -22 37 46.58 20.5 w F51 – Pan-STARRS 1, Haleakala MPS 469795
2013 06 07.45342 16 19 58.555 -22 37 47.14 20.3 w F51 – Pan-STARRS 1, Haleakala MPS 469795
2013 06 12.37114 16 16 04.451 -22 40 50.22 20.4 w F51 – Pan-STARRS 1, Haleakala MPS 470581
2013 06 12.38202 16 16 03.918 -22 40 50.56 20.5 w F51 – Pan-STARRS 1, Haleakala MPS 470581
2013 06 12.39288 16 16 03.402 -22 40 50.87 20.9 w F51 – Pan-STARRS 1, Haleakala MPS 470581
2013 06 30.32054 16 04 08.930 -22 51 46.57 20.8 w F51 – Pan-STARRS 1, Haleakala MPS 471741
2013 06 30.33441 16 04 08.447 -22 51 47.06 20.9 w F51 – Pan-STARRS 1, Haleakala MPS 471741
2013 06 30.34826 16 04 07.987 -22 51 47.84 20.7 w F51 – Pan-STARRS 1, Haleakala MPS 471741
2013 06 30.36217 16 04 07.539 -22 51 48.23 20.7 w F51 – Pan-STARRS 1, Haleakala MPS 471741
2014 06 29.52707 21 30 15.229 -30 46 48.57 20.7 w F51 – Pan-STARRS 1, Haleakala MPS 522711
2014 06 29.53167 21 30 15.144 -30 46 50.17 20.6 w F51 – Pan-STARRS 1, Haleakala MPS 522711
2014 06 29.53759 21 30 15.024 -30 46 52.45 20.7 w F51 – Pan-STARRS 1, Haleakala MPS 522711
2014 06 29.54219 21 30 14.923 -30 46 54.13 20.9 w F51 – Pan-STARRS 1, Haleakala MPS 522711
2014 06 29.54816 21 30 14.811 -30 46 56.57 21.0 w F51 – Pan-STARRS 1, Haleakala MPS 522711
2014 06 29.55275 21 30 14.718 -30 46 58.06 20.6 w F51 – Pan-STARRS 1, Haleakala MPS 522711
2014 06 29.55866 21 30 14.604 -30 47 00.43 20.9 w F51 – Pan-STARRS 1, Haleakala MPS 522711
